Regional Weather Roundup
Issued by NWS

Home | Current Version | Previous Version | Graphics & Text | Print | Product List | Glossary Off
Versions: 1 2 3 4 5 6 7 8 9 10 11 12 13 14 15 16 17 18 19 20 21 22 23 24 25 26 27 28 29 30 31 32 33 34 35 36 37 38 39 40 41 42 43 44 45 46 47 48 49 50

000
ASUS43 KMKX 010411
RWRWI

WISCONSIN REGIONAL WEATHER ROUNDUP
NATIONAL WEATHER SERVICE MILWAUKEE/SULLIVAN WI
1100 PM CDT FRI SEP 30 2016

NOTE: "FAIR" INDICATES FEW OR NO CLOUDS BELOW 12,000 FEET WITH NO
SIGNIFICANT WEATHER AND/OR OBSTRUCTIONS TO VISIBILITY.

WIZ001-002-006>008-014>016-023>028-010500-
NORTHWEST WISCONSIN

CITY           SKY/WX    TMP DP  RH WIND       PRES   REMARKS
SUPERIOR ARPT  CLOUDY    52  52  99 NE5       30.29S
ASHLAND        FOG       52  52 100 NE12      30.28S VSB 1/4
HAYWARD        CLEAR     51  49  92 CALM      30.26S
SIREN          CLOUDY    54  52  94 CALM      30.26S
CUMBERLAND     CLEAR     52  50  93 N6        30.24S
RICE LAKE      CLEAR     54  51  90 N5        30.25R
CHETEK         NOT AVBL
LADYSMITH      PTCLDY    55  53  92 N6        30.25S
EAU CLAIRE     CLOUDY    59  53  80 NE7       30.20R
MENOMONIE      CLEAR     59  53  78 NE7       30.21R
NEW RICHMOND   CLEAR     55  53  94 NE5       30.23R
OSCEOLA        CLEAR     55  54  95 NE3       30.25S
$$

WIZ003>005-009-010-017-018-010500-
NORTH CENTRAL WISCONSIN

CITY           SKY/WX    TMP DP  RH WIND       PRES   REMARKS
MANITOWISH WTR NOT AVBL
ARBOR VITAE    CLEAR     57  51  80 NE5       30.25F
WOODRUFF       CLEAR     57  51  80 NE5       30.25F
RHINELANDER    CLEAR     55  50  83 E7        30.25F
EAGLE RIVER    CLEAR     54  47  78 E7        30.25F
LAND O LAKES   CLEAR     53  49  87 CALM      30.29S
PHILLIPS       PTCLDY    54  52  93 NE5       30.24S
TOMAHAWK       CLEAR     55  47  75 NE3       30.25S
MEDFORD        CLEAR     55  50  85 NE5       30.22S
MERRILL        MOCLDY    55  50  83 NE6       30.23S
$$

WIZ029-030-035-036-043>047-010500-
CENTRAL WISCONSIN

CITY           SKY/WX    TMP DP  RH WIND       PRES   REMARKS
WAUSAU         MOCLDY    58  51  78 NE5       30.19F
MOSINEE        CLOUDY    59  52  77 NE8       30.20F
MARSHFIELD     CLOUDY    62  51  67 E9        30.19F
STEVENS POINT  CLOUDY    59  50  73 NE8       30.19F
WAUPACA        CLOUDY    59  58  97 N3        30.18S
WAUTOMA        LGT RAIN  57  56  96 N9        30.16F FOG
WISC RAPIDS    CLOUDY    60  54  80 E10       30.20S
CAMP DOUGLAS   MOCLDY    57  55  94 NE5       30.17F
$$

WIZ011>013-019>022-031-037>040-048>050-010500-
NORTHEAST WISCONSIN

CITY           SKY/WX    TMP DP  RH WIND       PRES   REMARKS
ANTIGO         MOCLDY    54  51  89 NE5       30.22F
SHAWANO        CLOUDY    62  53  73 NE8       30.19F
OCONTO         NOT AVBL
STURGEON BAY   CLOUDY    62  55  77 E10G17    30.20S
GREEN BAY      CLOUDY    62  60  93 NE14      30.17S
MANITOWOC      LGT RAIN  61  59  93 NE10      30.16S FOG
APPLETON       LGT RAIN  59  59 100 NE10      30.16S
CLINTONVILLE   CLOUDY    61  52  72 NE10G16   30.19S
OSHKOSH        CLOUDY    60  59  96 NE9       30.14S
$$

WIZ032>034-041-042-053>061-010500-
SOUTHWEST WISCONSIN

CITY           SKY/WX    TMP DP  RH WIND       PRES   REMARKS
LA CROSSE      CLOUDY    64  56  75 NE5       30.17F
SPARTA         CLOUDY    60  55  84 E8        30.19S
VIROQUA        CLOUDY    57  57 100 NE5       30.17F
BOSCOBEL       CLOUDY    60  59  96 CALM      30.15F
PRAIRIE DU CHI CLOUDY    60  55  84 CALM      30.15S
PLATTEVILLE    CLOUDY    59  59 100 N5        30.14S
$$

WIZ056-057-062-063-064-067-068-010500-
SOUTH CENTRAL WISCONSIN

CITY           SKY/WX    TMP DP  RH WIND       PRES   REMARKS
REEDSBURG      NOT AVBL
BARABOO/DELLS  CLOUDY    57  56  95 NE7       30.14F
LONE ROCK      CLOUDY    60  57  89 N8        30.14F
MINERAL POINT  CLOUDY    59  59 100 N5        30.13F
MADISON        CLOUDY    59  58  96 NE9       30.12S
MIDDLETON      CLOUDY    60  60 100 N7        30.13S
WATERTOWN      CLOUDY    58  58 100 NE6       30.11S FOG
MONROE         CLOUDY    57  57 100 N7        30.11S
JANESVILLE     CLOUDY    61  59  94 N5        30.09S FOG
$$

WIZ051-052-058>065-066-070>072-010500-
SOUTHEAST WISCONSIN

CITY           SKY/WX    TMP DP  RH WIND       PRES   REMARKS
MILWAUKEE      LGT RAIN  61  59  93 NE9       30.09F
WAUKESHA       DRIZZLE   55  55 100 NE5       30.11F
MILWAUKEE/TIMM DRIZZLE   59  55  88 NE7       30.11S
RACINE         LGT RAIN  62  58  86 E9        30.10R
BURLINGTON     CLOUDY    58  58  98 N3        30.08F
KENOSHA        LGT RAIN  61  59  93 E8        30.08S
FOND DU LAC    LGT RAIN  61  59  93 NE7       30.14S
SHEBOYGAN      LGT RAIN  61  59  93 NE16      30.14R FOG
WEST BEND      DRIZZLE   68  68 100 E9G16     30.12S
JUNEAU         CLOUDY    59  57  95 NE8       30.13F
$$

LSZ147-162-010500-
LAKE SUPERIOR

STATION/POSITION TIME  TEMP    WIND        PRES    WAVE
                       AIR SEA DIR/SP/G            HT/PER
                 (UTC) (F)     (DEG/KT/KT) (MB)    (FT/S)
W MID LAKE BUOY  0350   56 56   50/  8/ 10 1025.4F   2/ 5
DEVILS ISLAND    0400   52      60/  8/  9 1025.7F
SAXON HARBOR     0340   56     300/  6/  7 1024.7F
$$

LMZ867-665-643>646-010500-
LAKE MICHIGAN

STATION/POSITION TIME  TEMP    WIND        PRES    WAVE
                       AIR SEA DIR/SP/G            HT/PER
                 (UTC) (F)     (DEG/KT/KT) (MB)    (FT/S)
CHAMBERS ISLAND  0300   63      50/ 14/ 18 1022.4F
S GREEN BAY BUOY 0300   63 62   70/ 17/ 21 1021.6
N MID LAKE BUOY  0350   64 65  100/ 19/ 25 1022.3R   5/ 5
NORTHPORT PIER   0300   63      80/ 16/ 21 1023.0S
SISTER BAY       0308   64      70/ 10/ 16   N/A
KEWAUNEE LAKESHO 0300   62      50/  6/ 10 1021.2R
SHEBOYGAN LAKESH 0400   61      50/ 16/ 18 1020.1F
PORT WASHINGTON  0300   60      40/ 12/ 15 1020.7F
ATWATER BUOY     0400   58 55   60/ 10/ 14 1018.9F
MILWAUKEE LAKESH 0310   57      40/  7/  8   N/A
S MID LAKE BUOY  0350   63 67   80/ 17/ 21 1017.7R   4/ 6
KENOSHA   LAKESH 0400   62      90/ 15/ 17 1018.3R
$$

TC  - TEMPERATURE IN CELSIUS
VSB - VISIBILITY IN STATUTE MILES
WCI - WIND CHILL INDEX
HX  - HEAT INDEX





USA.gov is the U.S. government's official web portal to all federal, state and local government web resources and services.